Regional Weather Roundup
Issued by NWS Lake Charles, LA

Home | Current Version | Previous Version | Text Only | Print | Product List | Glossary On
Versions: 1 2 3 4 5 6 7 8 9 10 11 12 13 14 15 16 17 18 19 20 21 22 23 24 25 26 27 28 29 30 31 32 33 34 35 36 37 38 39 40 41 42 43 44 45 46 47 48 49 50
000
ASUS44 KLCH 241210
RWRLCH
REGIONAL WEATHER ROUNDUP
NATIONAL WEATHER SERVICE LAKE CHARLES LA
700 AM CDT TUE MAY 24 2016

Note: "fair" indicates few or no clouds below 12,000 feet with no
significant weather and/or obstructions to visibility.


ACROSS SOUTHEAST TEXAS

CITY           SKY/WX    TMP DP  RH WIND       PRES   REMARKS
BEAUMONT       CLOUDY    76  72  87 S8        29.95R
BEAUMONT CITY  FAIR      74  72  92 E5        29.95S
ORANGE         CLOUDY    75  72  88 S5        29.98R
JASPER         PTCLDY    70  69  96 SE3       30.00R FOG
$$

ACROSS CENTRAL LOUISIANA

CITY           SKY/WX    TMP DP  RH WIND       PRES   REMARKS
LEESVILLE      CLOUDY    70  70 100 SE9       29.99R FOG
FULLERTON      CLOUDY    71  68  90 VRB5      29.97R FOG
ALEXANDRIA INT CLEAR     70  69  97 E7        30.00R FOG
ESLER FIELD    CLEAR     65  63  93 CALM      30.02R FOG
DERIDDER       CLOUDY    71  69  95 SE3       30.01R FOG
OAKDALE        FOG       65  65  98 CALM      30.00R VSB 1
OPELOUSAS      FAIR      69  68  97 SE6       30.01R
$$

ACROSS SOUTHWEST AND SOUTH CENTRAL LOUISIANA

CITY           SKY/WX    TMP DP  RH WIND       PRES   REMARKS
SULPHUR        MOSUNNY   76  73  91 SE5       29.98R
LAKE CHARLES   CLEAR     72  71  97 SE5       29.97R
CHENNAULT INT  CLEAR     70  70 100 CALM      29.98R
CAMERON PHI    MOSUNNY   77  73  88 SE10      29.99R
DEQUINCY       FAIR      68  68 100 CALM      29.98R FOG
JENNINGS       FAIR      72  72 100 E6        29.99S
LAFAYETTE      PTCLDY    71  69  93 CALM      30.01R
NEW IBERIA     PTCLDY    71  69  93 E6        30.01R
ABBEVILLE      FAIR      71  71 100 E3        30.00S
PATTERSON      CLEAR     72  70  93 E3        30.02S
SALT POINT       N/A     73  71  93 E3        29.99R
$$

SELECTED SITES ACROSS THE REGION

CITY           SKY/WX    TMP DP  RH WIND       PRES   REMARKS
HOUSTON BUSH   MOCLDY    74  73  97 SE5       29.92R
HOUSTON HOBBY  MOCLDY    76  73  91 SE8       29.92R
GALVESTON      PTCLDY    77  75  93 SE15      29.93S
COLLEGE STAT   CLOUDY    72  71  97 E7        29.91R
CONROE         MOCLDY    72  71  97 SE8       29.93R
HUNTSVILLE     MOCLDY    74  71  91 VRB3      29.92S
LUFKIN         CLOUDY    69  68  96 E6        29.95R FOG
SHREVEPORT     MOCLDY    71  69  93 SE5       29.98R
MONROE         MOSUNNY   67  65  93 CALM      30.03R
NATCHEZ MS     SUNNY     66  63  88 SE3       30.04R
BATON ROUGE    SUNNY     67  64  90 E5        30.03R
N.O. INTL ARPT MOSUNNY   73  66  78 E6        30.04R
SLIDELL        SUNNY     62  61  96 CALM      30.05R
$$

MARINE REPORTS

STATION/POSITION TIME  SKY/WX   TEMP    WIND        PRES    VSBY
                                AIR SEA DIR/SP/G
                 (UTC)          (F)     (DEG/KT/KT) (MB)    (MI)
BUOY 30 S HIGH I 1150            78 79  140/ 14/ 16 1013.2R
WVE H/P(F/S)=  3/ 4

SEA RIM ST PARK  1200            77     150/ 12/ 16 1014.8R
PORT ARTHUR      1100               77  150/  6/ 10 1014.1F
SABINE PASS N    1100            77 80  160/ 10/ 13 1015.2F
TEXAS POINT      NOT AVBL
CALCASIEU PASS   1100            77 80  170/ 13/ 15 1013.4F
LK CHARLES BEACH 1100            72 77              1015.1R
MARSH ISLAND     1100            82                   N/A
FRESH WATER LOCK 1100            77 80  150/ 10/ 13 1015.7R
AMERADA PASS     1100            73 74  100/  4/  5 1015.3R
$$



USA.gov is the U.S. government's official web portal to all federal, state and local government web resources and services.